Location: Fenile
(46.0500°N, 9.5500°E)
Time: 18:30:09
(UTC+00:00)

SAR-Lupe-4 - Pass Details

Date: 03 March 2021
Orbit: 481 x 485 km, 98.2° (Epoch: 26 March)

Event Time Altitude Azimuth Distance (km) Brightness Sun altitude
Rises 18:05:23 0° 17° (NNE) 2,554 7.1 -10.2°
Reaches altitude 10° 18:07:29 10° 21° (NNE) 1,669 6.1 -10.6°
Maximum altitude 18:11:01 58° 101° (ESE) 566 3.5 -11.2°
Drops below altitude 10° 18:14:32 10° 182° (S) 1,656 6.3 -11.8°
Sets 18:16:36 0° 186° (S) 2,531 7.3 -12.1°
